This is the latest recevied weather packets stored in our database for station/object IN3MWE-10. If no packets are shown the sender has not sent any weather packets the latest 10 day(s).
| Time | Temp. | Humidity | Pressure | Rain* | Wind** | Luminosity | Snow |
|---|---|---|---|---|---|---|---|
| 1788537021 | 36.67° C | 28% | 979.3 hPa | - | - | - | - |
| 1788536121 | 36.67° C | 27% | 979.5 hPa | - | - | - | - |
| 1788535222 | 37.22° C | 25% | 979.3 hPa | - | - | - | - |
| 1788534321 | 39.44° C | 23% | 979.5 hPa | - | - | - | - |
| 1788533421 | 40.56° C | 22% | 979.5 hPa | - | - | - | - |
| 1788532520 | 40° C | 21% | 979.7 hPa | - | - | - | - |
| 1788531620 | 40° C | 21% | 979.9 hPa | - | - | - | - |
| 1788530720 | 40.56° C | 20% | 980.1 hPa | - | - | - | - |
| 1788529820 | 38.89° C | 21% | 980.3 hPa | - | - | - | - |
| 1788528920 | 36.11° C | 24% | 980.5 hPa | - | - | - | - |
| 1788528020 | 36.11° C | 23% | 980.7 hPa | - | - | - | - |
| 1788527120 | 36.11° C | 24% | 980.9 hPa | - | - | - | - |
| 1788526219 | 35.56° C | 24% | 981.1 hPa | - | - | - | - |
| 1788525319 | 35.56° C | 24% | 981.2 hPa | - | - | - | - |
| 1788524419 | 34.44° C | 24% | 981.5 hPa | - | - | - | - |
| 1788523519 | 33.89° C | 26% | 981.8 hPa | - | - | - | - |
| 1788522619 | 32.78° C | 26% | 982 hPa | - | - | - | - |
| 1788521719 | 32.78° C | 27% | 982.2 hPa | - | - | - | - |
| 1788520819 | 33.89° C | 26% | 982.5 hPa | - | - | - | - |
| 1788519918 | 36.67° C | 23% | 982.6 hPa | - | - | - | - |
| 1788519018 | 35.56° C | 24% | 982.8 hPa | - | - | - | - |
| 1788518118 | 33.89° C | 28% | 983.2 hPa | - | - | - | - |
| 1788517218 | 32.22° C | 29% | 983.5 hPa | - | - | - | - |
| 1788516318 | 29.44° C | 34% | 983.8 hPa | - | - | - | - |
| 1788515418 | 28.33° C | 36% | 984 hPa | - | - | - | - |
* Rain since midnight (hover to see other rain measurements)
** Current wind speed in m/s (hover to see current wind gust speed)